Theta_e
287 287 287 286 286 286 285 285 285 285 285 287 287 288 288 288 289 289 290 290 291 292 292 293 293 294 294
287 287 286 286 285 285 285 284 284 284 284 286 286 287 287 288 288 289 289 289 290 290 290 291 291 292 293
287 286 286 285 285 284 284 283 283 284 284 285 285 285 286 287 288 287 287 287 288 288 289 289 290 291 291
286 286 285 285 284 284 283 283 283 284 284 285 285 285 285 285 285 285 285 285 286 287 288 289 289 290 291
286 286 285 285 284 283 283 283 284 284 285 284 285 284 286 286 286 286 286 286 286 287 288 288 289 289 289
286 286 285 284 283 283 284 284 284 285 284 283 285 285 286 285 285 285 285 285 286 287 287 287 288 288 289
285 284 284 283 283 284 284 284 283 284 283 283 285 285 285 285 285 285 285 285 285 286 287 288 288 288 289
284 284 284 284 284 284 283 283 283 284 284 282 284 284 285 285 285 286 285 285 285 285 286 287 287 287 288
283 284 284 283 283 283 283 283 284 284 285 282 284 283 284 285 285 285 285 285 285 285 286 285 286 287 288
284 284 284 284 284 284 284 283 283 281 283 282 282 282 282 283 284 285 286 286 286 286 286 285 285 286 286
283 284 284 285 285 285 284 284 283 283 285 283 281 282 281 282 284 285 285 286 286 286 286 286 286 286 286
284 284 284 285 285 285 285 285 284 284 285 285 283 283 282 282 282 285 285 285 285 286 286 287 286 286 286
284 285 285 285 285 285 285 285 285 285 285 285 284 284 283 282 283 284 285 286 286 286 286 286 286 287 287
284 285 285 285 285 285 285 285 285 286 286 285 285 284 283 284 284 285 285 283 286 286 286 286 287 287 287
285 285 285 285 285 285 285 285 284 284 285 286 285 285 285 285 285 286 285 285 286 286 286 286 287 288 288
285 285 285 285 285 285 284 284 284 285 285 285 285 285 285 285 284 285 285 285 286 286 286 285 286 288 288
286 285 285 285 284 284 284 284 284 285 285 285 285 284 283 283 286 285 285 286 286 287 287 287 287 288 288
Wind_Speed
33 32 32 33 33 33 33 30 29 29 28 27 28 27 28 30 30 31 32 32 32 32 33 33 33 33 34
33 32 33 33 35 36 31 31 33 30 29 27 28 28 28 29 29 29 30 32 32 32 33 33 34 34 34
33 33 33 34 37 36 38 38 35 34 31 30 29 29 26 27 28 32 31 31 30 32 32 32 32 32 32
31 32 34 35 38 40 41 38 38 34 35 31 25 27 32 32 30 29 28 29 30 30 30 31 32 33 33
29 33 35 38 40 39 39 38 38 37 37 23 36 42 35 34 32 31 28 28 29 32 33 33 32 32 34
30 34 38 37 36 35 34 37 41 36 34 43 39 41 39 35 32 31 30 31 31 32 31 31 31 29 29
31 34 35 33 30 32 33 36 39 40 41 46 39 41 35 34 35 32 29 27 27 27 27 28 26 28 29
30 30 27 28 29 32 36 36 37 36 36 42 39 37 38 39 36 25 19 20 23 24 26 29 32 32 31
24 24 25 26 27 28 29 31 39 40 34 32 37 42 44 41 33 28 32 29 29 29 28 29 29 30 32
27 27 25 24 22 22 27 31 33 37 30 35 38 36 29 37 34 39 38 35 33 29 28 27 27 29 32
26 25 25 23 23 25 26 28 31 35 34 31 37 35 32 42 42 41 41 38 35 32 27 25 23 24 29
25 26 26 26 27 27 26 27 27 33 34 29 33 33 35 40 45 44 41 40 38 34 26 19 25 25 26
24 25 27 27 28 28 25 25 30 32 29 28 29 30 30 36 43 44 44 43 33 28 31 30 31 27 28
25 26 26 29 29 29 32 33 34 32 28 27 28 28 32 34 37 44 41 39 36 33 33 34 30 30 32
24 26 29 31 32 31 30 32 33 35 36 30 27 30 32 33 36 38 37 36 35 37 36 38 37 35 34
23 28 32 32 33 32 31 30 32 34 35 34 36 36 34 35 28 31 36 39 40 39 37 36 41 37 35
25 29 31 31 32 33 31 32 33 34 35 37 36 35 35 36 40 28 31 38 35 34 33 34 39 41 36
Wind_Direction
301 306 308 309 309 311 315 312 309 308 304 299 296 295 290 288 287 285 285 283 283 282 281 280 278 276 276
305 310 313 317 317 316 315 314 314 312 309 301 297 294 292 289 289 287 288 285 282 280 280 281 277 276 275
304 310 313 317 317 319 320 317 316 317 313 311 309 300 297 296 291 289 287 281 279 280 281 279 277 277 275
305 308 311 314 318 318 317 316 318 318 315 314 312 311 312 306 301 300 294 286 283 281 280 279 277 276 275
303 306 308 315 315 316 315 320 318 316 317 318 318 315 315 312 306 300 293 288 285 282 281 280 277 274 273
301 302 307 310 312 315 315 315 313 319 312 305 313 311 312 312 309 307 299 289 285 283 282 280 279 276 273
296 301 304 310 313 312 313 307 301 306 308 306 311 309 315 311 311 309 303 291 287 286 284 282 279 273 270
301 304 307 311 307 301 297 297 299 303 310 303 316 312 315 312 315 312 305 302 298 291 285 281 280 277 273
300 299 300 300 301 300 302 305 305 309 313 308 317 315 313 313 320 319 317 312 305 302 292 284 280 278 275
308 307 307 307 306 304 309 307 308 312 313 311 312 316 314 311 314 315 314 313 310 305 299 290 281 274 269
307 311 313 311 311 312 310 307 306 301 315 310 304 307 297 304 306 312 314 315 312 308 302 294 284 270 267
314 318 321 321 318 315 313 306 303 304 312 310 300 305 305 303 302 313 314 314 313 310 307 300 294 284 268
320 323 323 323 323 322 320 318 312 311 315 315 308 308 302 299 302 308 313 315 311 307 309 305 298 291 284
325 325 327 330 330 329 324 324 319 320 323 323 320 315 309 307 307 305 310 298 310 309 308 302 297 292 288
330 333 334 331 329 329 327 325 322 323 325 328 325 320 314 312 307 308 310 308 311 310 308 304 298 294 290
338 338 335 334 333 335 333 330 327 328 328 331 330 328 324 319 310 308 312 307 312 310 303 290 295 298 296
341 341 339 338 338 338 338 335 332 331 331 333 331 327 312 304 322 308 291 298 306 304 305 300 297 301 303